| time (UTC) | temp F | wind direction | speed knots | gust knots | rain 1hr in | rain 24hr in | rain mn in | humidity % | barometer mb |
| 20260506072606 | 54 | 0.0 | 0.0 | 0.04 | 0.59 | 0.34 | 95 | 1021.0 | |
| 20260506071556 | 53 | 0.0 | 0.0 | 0.03 | 0.58 | 0.33 | 94 | 1021.1 | |
| 20260506070545 | 53 | 0.0 | 0.0 | 0.00 | 0.55 | 0.30 | 94 | 1021.1 | |
| 20260506061558 | 53 | 278 | 0.0 | 0.0 | 0.02 | 0.48 | 0.23 | 95 | 1020.9 |
| 20260506060606 | 53 | 286 | 0.0 | 0.9 | 0.00 | 0.46 | 0.21 | 94 | 1020.9 |
| 20260506050606 | 52 | 0.0 | 0.0 | 0.00 | 0.43 | 0.18 | 96 | 1021.1 | |
| 20260506044526 | 52 | 258 | 0.0 | 0.9 | 0.00 | 0.43 | 0.18 | 96 | 1021.0 |
| 20260506043518 | 52 | 250 | 0.0 | 0.9 | 0.00 | 0.43 | 0.18 | 96 | 1020.8 |
| 20260506042629 | 52 | 0.0 | 0.0 | 0.00 | 0.43 | 0.18 | 96 | 1020.8 | |
| 20260506041558 | 52 | 0.0 | 0.0 | 0.00 | 0.43 | 0.18 | 96 | 1020.7 | |
| 20260506040548 | 52 | 345 | 0.0 | 0.9 | 0.00 | 0.43 | 0.18 | 96 | 1020.8 |
| 20260506035539 | 52 | 0.0 | 0.0 | 0.00 | 0.43 | 0.18 | 96 | 1020.9 | |
| 20260506034548 | 52 | 345 | 0.0 | 0.9 | 0.00 | 0.43 | 0.18 | 97 | 1020.9 |
| 20260506033518 | 52 | 285 | 0.0 | 0.9 | 0.00 | 0.43 | 0.18 | 97 | 1020.9 |
| 20260506032609 | 53 | 0.0 | 0.0 | 0.00 | 0.43 | 0.18 | 97 | 1021.3 | |
| 20260506031600 | 53 | 0.0 | 0.0 | 0.00 | 0.43 | 0.18 | 97 | 1021.4 | |
| 20260506030549 | 53 | 0.0 | 0.0 | 0.00 | 0.43 | 0.18 | 97 | 1021.4 | |
| 20260506025539 | 53 | 0.0 | 0.0 | 0.00 | 0.43 | 0.18 | 97 | 1021.5 | |
| 20260506024529 | 53 | 0.0 | 0.0 | 0.00 | 0.43 | 0.18 | 97 | 1021.6 | |
| 20260506023519 | 53 | 197 | 0.0 | 0.9 | 0.00 | 0.43 | 0.18 | 97 | 1021.8 |
| 20260506022616 | 53 | 235 | 0.0 | 0.9 | 0.00 | 0.43 | 0.18 | 97 | 1021.9 |
| 20260506021601 | 53 | 0.0 | 0.0 | 0.00 | 0.43 | 0.18 | 97 | 1021.8 | |
| 20260506020552 | 53 | 0.0 | 0.0 | 0.00 | 0.43 | 0.18 | 96 | 1021.9 | |
| 20260506015540 | 53 | 0.0 | 0.0 | 0.00 | 0.43 | 0.18 | 96 | 1021.6 | |
| 20260506014532 | 53 | 0.0 | 0.0 | 0.00 | 0.43 | 0.18 | 96 | 1021.7 | |
| 20260506013520 | 53 | 243 | 0.0 | 0.0 | 0.00 | 0.43 | 0.18 | 96 | 1021.7 |
| 20260506012522 | 53 | 0.0 | 0.0 | 0.00 | 0.43 | 0.18 | 96 | 1021.8 | |
| 20260506011600 | 53 | 0.0 | 0.0 | 0.00 | 0.43 | 0.18 | 96 | 1022.0 | |
| 20260506010552 | 53 | 0.0 | 0.0 | 0.00 | 0.43 | 0.18 | 96 | 1022.2 | |
| 20260506005540 | 53 | 0.0 | 0.0 | 0.00 | 0.43 | 0.18 | 96 | 1022.2 | |
| 20260506004530 | 53 | 0.0 | 0.0 | 0.00 | 0.43 | 0.18 | 96 | 1022.2 | |
| 20260506003541 | 53 | 0.0 | 0.0 | 0.00 | 0.43 | 0.18 | 96 | 1022.4 | |
| 20260506002614 | 53 | 0.0 | 0.0 | 0.00 | 0.43 | 0.18 | 96 | 1022.5 | |
| 20260506001602 | 53 | 0.0 | 0.0 | 0.00 | 0.43 | 0.18 | 96 | 1022.5 | |
| 20260506000552 | 53 | 0.0 | 0.0 | 0.00 | 0.43 | 0.18 | 96 | 1022.3 | |
| 20260505235542 | 53 | 0.0 | 0.0 | 0.08 | 0.43 | 0.18 | 96 | 1022.5 | |
| 20260505234532 | 53 | 0.0 | 0.0 | 0.08 | 0.43 | 0.18 | 96 | 1022.5 | |
| 20260505233524 | 53 | 0.0 | 0.0 | 0.07 | 0.42 | 0.17 | 96 | 1022.6 | |
| 20260505232633 | 53 | 0.0 | 0.0 | 0.04 | 0.39 | 0.14 | 96 | 1022.7 | |
| 20260505231603 | 53 | 0.0 | 0.0 | 0.02 | 0.37 | 0.12 | 96 | 1022.7 | |
| 20260505230554 | 53 | 0.0 | 0.0 | 0.01 | 0.36 | 0.11 | 96 | 1022.6 | |
| 20260505225603 | 53 | 244 | 0.0 | 0.0 | 0.10 | 0.35 | 0.10 | 96 | 1022.7 |
| 20260505224533 | 53 | 0.0 | 0.0 | 0.05 | 0.30 | 0.05 | 95 | 1022.8 | |
| 20260505223523 | 53 | 0.0 | 0.0 | 0.02 | 0.27 | 0.02 | 95 | 1022.8 | |
| 20260505222614 | 53 | 0.0 | 0.0 | 0.00 | 0.25 | 0.00 | 95 | 1023.0 | |
| 20260505221605 | 53 | 0.0 | 0.0 | 0.00 | 0.25 | 0.00 | 96 | 1023.0 | |
| 20260505220554 | 53 | 0.0 | 0.0 | 0.00 | 0.25 | 0.00 | 95 | 1022.9 | |
| 20260505215543 | 53 | 0.0 | 0.0 | 0.00 | 0.25 | 0.26 | 95 | 1022.9 | |
| 20260505214533 | 53 | 0.0 | 0.0 | 0.00 | 0.25 | 0.26 | 95 | 1023.2 | |
| 20260505213545 | 53 | 0.0 | 0.0 | 0.00 | 0.25 | 0.26 | 95 | 1023.2 | |
| 20260505212616 | 53 | 243 | 0.0 | 0.0 | 0.00 | 0.25 | 0.26 | 95 | 1023.4 |
| 20260505211604 | 53 | 0.0 | 0.0 | 0.00 | 0.25 | 0.26 | 95 | 1023.4 | |
| 20260505210554 | 53 | 0.0 | 0.0 | 0.00 | 0.25 | 0.26 | 95 | 1023.4 | |
| 20260505205544 | 53 | 0.0 | 0.0 | 0.00 | 0.25 | 0.26 | 95 | 1023.4 | |
| 20260505204534 | 53 | 244 | 0.0 | 0.9 | 0.00 | 0.25 | 0.26 | 95 | 1023.4 |
| 20260505203524 | 53 | 239 | 0.9 | 0.9 | 0.00 | 0.25 | 0.26 | 95 | 1023.4 |
| 20260505202615 | 53 | 0.0 | 0.0 | 0.00 | 0.25 | 0.26 | 95 | 1023.6 | |
| 20260505201625 | 53 | 0.0 | 0.0 | 0.00 | 0.25 | 0.26 | 95 | 1023.5 | |
| 20260505200554 | 53 | 0.0 | 0.0 | 0.00 | 0.25 | 0.26 | 95 | 1023.5 | |
| 20260505195546 | 53 | 232 | 0.0 | 0.0 | 0.00 | 0.25 | 0.26 | 94 | 1023.4 |
| 20260505194534 | 53 | 0.0 | 0.0 | 0.00 | 0.25 | 0.26 | 94 | 1023.4 | |
| 20260505193525 | 53 | 217 | 0.0 | 0.9 | 0.00 | 0.25 | 0.26 | 94 | 1023.3 |
| 20260505192615 | 53 | 201 | 0.0 | 0.9 | 0.00 | 0.25 | 0.26 | 94 | 1023.2 |
| 20260505191605 | 53 | 0.0 | 0.0 | 0.00 | 0.25 | 0.26 | 94 | 1023.2 | |
| 20260505190617 | 53 | 179 | 0.0 | 0.9 | 0.00 | 0.25 | 0.26 | 94 | 1023.2 |
| 20260505185545 | 53 | 0.0 | 0.0 | 0.00 | 0.25 | 0.26 | 93 | 1023.2 | |
| 20260505184535 | 53 | 181 | 0.0 | 1.7 | 0.00 | 0.25 | 0.26 | 93 | 1023.1 |
| 20260505183527 | 53 | 193 | 0.9 | 0.9 | 0.00 | 0.25 | 0.26 | 93 | 1023.0 |
| 20260505182616 | 53 | 172 | 0.0 | 0.9 | 0.00 | 0.25 | 0.26 | 93 | 1023.0 |
| 20260505181606 | 53 | 190 | 0.9 | 1.7 | 0.00 | 0.25 | 0.26 | 93 | 1023.1 |
| 20260505180556 | 53 | 180 | 0.0 | 0.9 | 0.00 | 0.25 | 0.26 | 93 | 1022.9 |
| 20260505175551 | 53 | 176 | 0.9 | 2.6 | 0.01 | 0.25 | 0.26 | 93 | 1022.8 |
| 20260505174536 | 53 | 181 | 0.0 | 0.9 | 0.01 | 0.25 | 0.26 | 93 | 1022.8 |
| 20260505173547 | 53 | 185 | 0.9 | 2.6 | 0.01 | 0.25 | 0.26 | 93 | 1022.8 |
| 20260505172518 | 53 | 176 | 0.0 | 0.0 | 0.01 | 0.25 | 0.26 | 93 | 1022.9 |
| 20260505171628 | 53 | 194 | 0.9 | 1.7 | 0.00 | 0.24 | 0.25 | 93 | 1022.8 |
| 20260505170558 | 53 | 194 | 0.9 | 1.7 | 0.00 | 0.24 | 0.25 | 93 | 1022.8 |
| 20260505165549 | 53 | 187 | 0.0 | 1.7 | 0.04 | 0.24 | 0.25 | 93 | 1022.9 |
| 20260505164539 | 54 | 175 | 0.0 | 1.7 | 0.03 | 0.23 | 0.24 | 93 | 1022.9 |
| 20260505163528 | 54 | 181 | 0.9 | 1.7 | 0.02 | 0.22 | 0.23 | 93 | 1023.0 |
| 20260505162518 | 55 | 190 | 0.9 | 2.6 | 0.01 | 0.21 | 0.22 | 91 | 1023.0 |
| 20260505161609 | 55 | 193 | 0.0 | 0.9 | 0.01 | 0.21 | 0.22 | 91 | 1023.0 |
| 20260505160559 | 55 | 194 | 0.9 | 1.7 | 0.00 | 0.20 | 0.21 | 91 | 1022.9 |
| 20260505152519 | 55 | 190 | 0.0 | 0.9 | 0.00 | 0.17 | 0.18 | 89 | 1023.2 |
| 20260505151610 | 56 | 191 | 0.0 | 0.9 | 0.00 | 0.17 | 0.18 | 89 | 1023.1 |
| 20260505150600 | 56 | 194 | 0.0 | 1.7 | 0.00 | 0.17 | 0.18 | 89 | 1023.1 |
| 20260505140621 | 56 | 186 | 0.9 | 1.7 | 0.00 | 0.17 | 0.18 | 89 | 1023.3 |
| 20260505124541 | 59 | 355 | 0.0 | 0.9 | 0.00 | 0.15 | 0.16 | 77 | 1023.5 |
| 20260505123533 | 58 | 352 | 0.0 | 0.9 | 0.00 | 0.15 | 0.16 | 81 | 1023.5 |
| 20260505122524 | 58 | 357 | 0.9 | 1.7 | 0.00 | 0.15 | 0.16 | 82 | 1023.6 |
| 20260505121635 | 58 | 2 | 0.0 | 0.9 | 0.00 | 0.15 | 0.16 | 85 | 1023.6 |
| 20260505120604 | 57 | 14 | 0.0 | 0.9 | 0.00 | 0.15 | 0.16 | 85 | 1023.6 |
| 20260505115555 | 57 | 1 | 0.9 | 0.9 | 0.00 | 0.15 | 0.16 | 85 | 1023.7 |
| 20260505114545 | 56 | 9 | 0.0 | 0.9 | 0.00 | 0.15 | 0.16 | 89 | 1023.9 |
| 20260505113533 | 56 | 88 | 0.0 | 0.9 | 0.00 | 0.15 | 0.16 | 88 | 1023.9 |
| 20260505112523 | 56 | 306 | 0.0 | 0.0 | 0.00 | 0.15 | 0.16 | 88 | 1023.9 |
| 20260505111614 | 56 | 8 | 0.9 | 1.7 | 0.00 | 0.15 | 0.16 | 88 | 1024.0 |
| 20260505110604 | 55 | 78 | 0.0 | 0.9 | 0.00 | 0.15 | 0.16 | 90 | 1024.1 |
| 20260505101617 | 54 | 13 | 0.0 | 0.9 | 0.03 | 0.11 | 0.12 | 90 | 1024.2 |
| 20260505100606 | 54 | 49 | 0.9 | 1.7 | 0.01 | 0.10 | 0.10 | 89 | 1024.3 |
| 20260505095616 | 54 | 108 | 0.0 | 0.0 | 0.06 | 0.08 | 0.08 | 88 | 1024.4 |
| 20260505094605 | 54 | 110 | 0.0 | 0.0 | 0.03 | 0.05 | 0.05 | 86 | 1024.5 |
| 20260505093535 | 54 | 113 | 0.0 | 0.9 | 0.01 | 0.03 | 0.03 | 86 | 1024.5 |
| 20260505092525 | 54 | 136 | 0.0 | 0.0 | 0.00 | 0.02 | 0.02 | 84 | 1024.3 |
| 20260505091658 | 54 | 170 | 0.0 | 0.0 | 0.00 | 0.02 | 0.02 | 85 | 1024.2 |
| 20260505090607 | 54 | 174 | 0.0 | 0.0 | 0.00 | 0.02 | 0.02 | 86 | 1024.2 |
| 20260505085555 | 54 | 0.0 | 0.0 | 0.01 | 0.02 | 0.02 | 85 | 1024.2 | |
| 20260505084545 | 54 | 174 | 0.0 | 0.0 | 0.01 | 0.02 | 0.02 | 84 | 1024.2 |
| 20260505083637 | 54 | 170 | 0.0 | 0.0 | 0.01 | 0.02 | 0.02 | 84 | 1024.2 |
| 20260505082526 | 54 | 181 | 0.0 | 0.9 | 0.01 | 0.02 | 0.02 | 85 | 1024.2 |
| 20260505081637 | 53 | 184 | 0.0 | 0.9 | 0.00 | 0.01 | 0.01 | 84 | 1024.1 |
| 20260505080607 | 54 | 175 | 0.9 | 1.7 | 0.00 | 0.01 | 0.01 | 82 | 1024.2 |
| 20260505075557 | 54 | 169 | 0.9 | 2.6 | 0.00 | 0.00 | 0.00 | 80 | 1024.1 |